RH
57 57 64 70 65 66 72 68 93 77 78 69 65 62 62 66 74 84 92 99 100 98 95 100 100 100 93 91 84 80 90 88 85 85 89 96 98 100 93 99 96 98 85 78
64 52 62 74 77 69 87 96 65 76 76 61 64 67 67 69 74 79 85 90 92 97 91 89 90 100 100 93 76 78 83 99 96 95 92 97 100 95 94 88 85 90 96 100
71 50 51 81 90 69 65 58 60 81 66 63 72 72 74 75 80 87 90 86 88 89 94 93 90 91 98 92 85 81 83 91 99 100 99 98 99 99 98 99 100 100 100 97
76 48 80 62 56 61 61 58 53 55 59 67 75 78 79 80 87 93 93 89 88 85 81 81 85 82 83 96 100 98 100 100 100 100 100 100 100 99 98 99 99 100 99 89
74 73 66 62 60 63 68 73 58 59 54 58 72 68 83 82 87 94 94 91 94 95 86 80 79 82 83 81 79 82 98 98 100 100 100 100 100 100 99 100 100 99 95 92
62 71 76 64 55 53 55 84 58 58 61 63 54 92 92 85 82 86 88 85 76 78 81 78 84 79 72 75 80 82 81 80 84 93 99 98 99 100 100 100 100 98 94 86
61 75 62 50 53 52 70 82 59 62 64 70 86 82 85 84 83 80 87 88 88 83 80 80 80 76 72 74 71 75 78 81 83 82 80 80 81 84 84 84 82 80 74 70
60 60 80 54 55 71 73 63 64 68 70 74 79 83 81 84 87 83 81 80 82 80 81 83 80 79 77 74 77 76 74 74 74 77 81 84 84 82 80 78 78 76 74 73
65 72 64 66 68 64 64 68 72 74 74 75 78 82 81 82 81 82 84 81 77 80 87 88 86 84 84 86 86 86 83 80 79 78 80 80 82 82 82 83 82 82 80 77
64 67 70 72 73 72 70 77 78 78 77 75 79 81 81 81 76 69 67 71 80 73 69 71 75 80 86 89 88 88 89 90 92 92 86 84 86 86 86 86 85 85 86 85
64 63 64 68 72 75 76 74 75 79 79 78 79 81 81 81 78 76 73 71 69 69 75 77 77 75 71 68 68 81 84 92 96 95 94 92 97 97 97 96 92 92 97 94
60 54 58 58 68 71 68 68 69 73 76 79 83 87 88 84 80 77 76 77 77 81 87 83 85 83 79 77 79 84 82 70 72 84 95 99 100 100 99 100 100 100 99 99
44 45 49 53 65 69 68 63 62 67 69 81 75 85 87 86 84 85 81 80 81 84 93 96 97 97 90 86 80 78 83 87 90 78 72 74 82 89 96 100 100 100 100 100
49 51 65 64 68 70 66 65 67 67 66 65 66 71 81 83 86 90 90 90 92 94 82 90 92 92 92 89 83 76 75 77 85 92 92 82 78 79 85 91 95 96 99 100
55 50 53 58 63 64 66 66 67 66 65 63 66 71 71 78 87 90 93 93 93 93 88 87 91 90 89 86 81 74 70 68 56 56 67 75 77 81 85 86 90 95 98 98
65 62 64 60 62 64 66 68 64 64 63 64 78 73 70 77 81 82 84 86 88 89 89 91 91 86 83 76 66 59 53 56 64 56 42 29 24 23 29 51 74 78 79 95
70 70 69 69 68 66 66 63 59 61 63 66 76 80 87 92 96 98 98 97 92 92 88 83 82 80 77 69 55 41 32 29 30 34 39 40 38 35 31 29 30 27 30 68
53 51 54 57 62 66 63 58 53 54 52 52 61 80 97 98 92 92 94 98 94 86 81 84 86 81 71 69 66 66 61 60 68 61 54 49 49 50 48 44 40 37 36 33
63 54 56 59 59 59 56 52 51 48 46 53 66 79 88 94 93 94 98 93 84 81 82 80 71 70 75 77 76 76 66 60 66 53 59 68 62 57 53 50 50 52 53 49
66 61 57 58 57 52 49 48 39 38 41 51 67 76 84 90 97 100 97 86 81 82 76 71 74 80 71 58 56 49 32 37 42 51 63 58 57 67 70 70 77 75 58 57
59 59 56 54 50 48 44 38 36 39 41 48 59 70 82 90 100 100 95 85 79 78 78 80 66 55 48 40 34 33 33 49 57 58 57 70 66 44 32 34 48 57 69 68
56 56 53 48 50 44 41 41 35 36 44 49 54 67 89 98 96 92 89 82 85 87 86 84 70 73 70 62 59 49 39 48 61 76 89 60 42 34 33 40 52 62 64 67
57 56 50 50 49 46 44 35 36 43 43 47 53 61 70 79 93 90 84 85 89 93 94 93 92 94 95 89 67 50 45 48 53 62 56 48 40 38 40 49 58 65 65 64
60 56 54 56 52 48 36 37 43 43 46 48 50 55 63 65 72 87 88 88 91 95 95 97 97 97 99 96 84 68 56 49 48 50 49 45 44 46 57 58 64 70 68 69
62 58 58 55 50 45 36 40 43 44 48 46 46 48 54 59 64 61 68 70 82 91 97 100 100 94 96 97 96 81 78 77 60 57 55 56 59 66 66 64 70 69 69 70
60 59 58 53 52 44 39 41 44 46 46 42 40 38 39 43 48 52 61 69 69 68 69 72 71 80 96 93 92 95 94 78 70 68 68 70 73 73 66 69 68 66 68 69
65 65 60 56 54 52 50 49 48 45 47 46 44 42 40 36 39 44 50 56 62 65 69 78 83 87 91 98 100 97 89 84 81 80 78 79 78 69 70 68 64 64 66 68
Wind_Speed
6 8 12 16 16 16 14 9 7 9 14 13 13 14 17 24 26 29 35 40 37 35 34 28 23 16 14 15 17 13 10 11 13 15 15 15 14 16 21 26 24 22 21 23
5 6 14 11 17 14 10 8 10 11 12 10 17 22 25 25 26 31 32 35 36 34 31 28 23 17 12 12 12 12 13 12 13 14 16 18 19 19 21 25 25 25 25 24
0 3 4 7 9 9 10 13 11 9 9 10 13 16 23 24 27 27 28 30 29 26 27 23 19 16 13 9 9 5 5 8 10 11 12 11 12 14 19 23 23 24 26 26
2 2 3 3 3 4 12 10 8 7 7 11 13 19 23 24 24 24 24 24 25 23 20 21 19 17 13 10 7 4 2 5 9 11 10 11 13 15 18 20 21 23 24 23
2 3 4 3 2 2 4 8 7 7 6 12 16 21 23 21 20 19 19 19 18 17 17 17 17 16 15 13 10 9 8 3 5 8 10 13 15 17 18 18 19 21 22 23
2 2 3 3 2 3 5 4 7 10 8 10 11 5 3 13 17 20 21 20 16 14 15 16 15 12 10 10 8 9 7 4 2 2 4 5 8 11 13 15 16 18 20 20
3 3 3 3 3 4 2 3 8 12 14 15 6 9 8 10 14 17 18 17 15 14 14 14 12 11 11 10 10 9 5 3 1 2 4 5 7 9 10 12 15 16 19 20
1 1 3 2 0 3 5 9 10 10 11 14 11 10 10 13 14 14 16 15 15 14 13 12 11 10 11 9 9 8 6 5 4 4 5 7 9 11 12 13 15 16 18 20
2 2 3 4 8 8 6 10 8 9 8 8 8 8 7 8 10 13 14 14 14 15 12 10 9 10 9 10 8 8 8 8 7 5 5 6 7 9 11 13 15 17 19 21
3 4 7 8 8 8 7 8 7 7 7 8 8 5 6 6 7 10 11 13 12 13 13 13 12 10 9 8 7 8 8 8 8 10 11 10 9 11 12 13 14 17 19 21
2 5 8 8 10 12 11 9 8 7 6 8 6 4 2 4 6 7 8 8 8 9 10 11 11 9 8 6 6 6 9 10 10 9 9 11 12 13 13 15 17 18 22 23
4 17 9 15 18 14 12 9 7 5 5 4 5 3 2 1 1 1 2 2 3 4 6 6 5 6 8 10 10 10 9 10 11 11 11 12 13 15 17 16 16 20 23 22
3 14 5 14 20 15 13 11 8 5 4 3 2 3 3 4 2 3 3 3 3 4 5 6 6 9 9 8 8 10 11 11 12 13 15 17 17 17 17 16 18 18 19 19
13 18 14 18 13 18 13 10 7 5 3 4 4 2 3 5 5 5 6 6 6 7 9 11 10 10 10 9 9 10 10 12 12 12 13 14 16 17 19 19 20 18 17 16
17 13 8 14 10 17 14 10 7 5 5 5 5 5 6 6 7 9 9 9 10 10 9 12 13 13 12 12 10 11 12 12 12 12 12 13 15 15 16 16 17 19 18 17
20 14 10 16 15 15 13 10 8 6 7 6 7 9 10 9 10 11 11 11 11 12 14 14 14 15 15 15 14 13 13 11 11 11 12 12 12 12 14 15 16 17 19 19
26 19 18 17 17 15 12 9 7 8 9 8 10 12 10 9 9 11 12 13 13 13 14 15 15 16 15 13 12 11 10 10 10 10 11 11 12 12 12 13 13 13 16 15
22 20 20 17 17 15 12 10 9 9 9 9 9 9 8 9 10 12 13 14 14 14 16 17 16 14 12 11 11 11 11 12 12 12 11 11 12 13 14 14 14 14 14 13
20 14 15 15 13 13 11 10 9 8 8 9 9 9 9 10 11 13 15 15 15 16 15 13 10 10 11 12 11 12 11 11 10 10 10 11 11 11 12 13 13 14 14 15
22 16 14 15 13 12 11 9 9 9 9 10 11 12 12 11 14 15 15 15 15 15 13 12 12 12 11 11 11 12 13 13 12 11 11 12 13 14 15 16 17 17 15 14
22 20 17 15 14 12 10 9 8 10 11 11 13 14 14 15 15 16 16 17 12 12 12 13 12 13 13 13 14 14 14 14 13 13 13 15 16 17 18 19 19 19 19 17
22 21 18 15 13 11 9 9 9 11 11 12 13 14 15 16 14 16 16 16 13 15 16 15 15 15 14 15 15 15 16 16 16 16 17 18 19 20 20 20 20 19 19 19
22 20 17 15 12 10 10 9 10 10 10 11 11 12 13 13 13 16 17 14 16 16 17 17 17 17 18 19 18 18 18 18 18 19 19 20 20 21 22 21 20 20 20 20
23 20 16 14 13 12 9 8 10 11 11 11 12 12 13 15 15 15 17 18 20 20 20 19 19 19 19 21 19 19 19 18 18 18 19 20 21 21 22 22 21 20 20 18
22 19 17 15 14 10 9 9 10 11 11 12 12 13 14 15 19 17 18 19 19 20 22 20 21 21 22 21 20 19 19 18 18 19 20 20 21 21 21 21 21 20 19 16
22 19 16 14 12 11 10 10 10 11 13 14 13 14 15 16 17 18 19 20 20 20 21 20 20 19 20 19 18 18 18 18 19 19 21 21 22 21 21 21 21 19 16 14
19 18 17 16 14 11 11 12 14 12 13 15 16 14 15 17 17 18 19 19 19 20 20 19 17 16 16 16 17 16 17 18 19 20 20 20 20 20 21 21 19 15 13 11
Wind_Direction
66 74 55 37 36 40 58 50 56 57 49 35 26 31 39 39 35 36 30 43 52 59 60 70 86 103 117 134 145 155 172 173 184 199 205 205 213 217 207 213 224 222 221 210
8 20 69 42 22 41 38 359 62 57 65 48 36 31 33 36 35 33 34 34 44 51 54 57 58 78 115 125 135 167 186 198 201 210 214 216 218 212 207 210 219 226 233 219
340 254 312 34 12 34 50 48 45 42 57 53 40 35 28 30 35 38 35 40 44 48 57 58 59 66 83 122 141 164 194 202 209 209 215 217 222 221 219 221 223 223 205 199
289 261 57 89 46 20 65 35 55 69 67 82 83 59 41 38 39 38 43 51 52 50 54 58 61 62 67 73 90 149 183 196 218 212 209 207 208 209 203 201 203 202 201 205
52 54 137 166 97 59 37 36 14 40 34 130 133 52 35 32 42 45 52 57 71 73 68 70 65 62 67 72 71 78 87 117 210 213 215 215 210 216 218 212 209 212 214 220
353 90 54 89 93 357 299 89 23 38 19 26 153 57 29 29 36 43 50 49 56 62 71 73 67 64 66 64 62 66 69 76 92 158 199 209 219 225 226 227 225 226 227 225
22 69 108 70 6 306 28 120 71 63 51 55 78 104 109 73 60 52 53 54 58 69 78 75 69 55 56 57 55 46 37 24 346 228 241 244 245 246 241 236 235 231 231 230
294 150 296 42 316 64 132 88 83 72 85 97 99 91 85 83 82 76 74 70 64 65 67 66 63 64 61 49 46 34 27 16 358 325 287 266 262 255 254 250 248 246 243 239
113 196 107 68 104 115 118 124 94 105 101 100 113 103 80 67 73 89 94 89 78 77 77 76 63 50 43 44 34 24 9 357 341 320 296 292 284 273 266 258 256 253 249 244
140 172 164 160 145 146 133 136 129 115 100 96 111 95 77 71 56 50 55 69 80 83 82 75 63 51 41 32 15 4 358 345 338 335 321 309 288 274 265 261 258 260 258 254
103 134 135 182 179 171 160 148 137 129 120 123 109 103 79 71 67 60 50 48 43 44 48 50 52 53 48 30 1 335 323 321 320 310 298 296 297 293 284 274 268 263 259 261
218 179 186 194 179 181 167 162 154 140 117 119 136 128 165 190 145 116 64 38 26 27 27 17 15 13 10 9 2 336 308 297 294 289 282 279 277 272 270 268 272 274 265 261
180 166 157 167 176 176 174 175 171 172 170 156 195 192 215 254 269 277 292 304 313 330 350 337 325 325 330 327 333 332 320 306 293 286 284 283 279 277 274 268 268 266 268 274
159 155 130 167 178 177 189 188 190 201 215 230 258 271 268 285 291 288 289 295 298 297 307 302 296 300 306 307 320 310 305 306 293 279 276 278 280 279 278 280 281 271 264 265
183 187 192 185 178 183 193 199 207 217 243 261 269 273 278 278 285 286 289 293 297 296 302 301 305 309 313 314 313 308 308 310 307 301 293 287 283 281 281 284 287 288 285 276
186 189 178 188 190 189 197 205 214 230 257 265 274 274 271 271 273 283 285 290 292 299 302 303 306 309 313 315 312 309 310 310 305 304 305 306 306 304 298 291 286 283 291 297
179 187 187 190 195 197 204 211 221 235 259 268 260 271 280 281 284 286 294 292 292 295 299 304 304 305 306 308 309 308 309 312 316 316 314 312 312 310 309 306 298 296 298 287
202 212 205 206 198 200 204 214 233 252 266 276 278 272 268 277 283 287 288 292 291 293 299 298 293 296 301 302 301 302 302 302 306 311 315 314 311 309 305 302 299 295 292 288
200 199 196 201 202 205 213 223 242 257 267 271 272 276 272 274 277 274 278 284 291 293 296 294 297 297 299 299 300 301 303 303 300 303 307 310 312 315 317 319 318 313 304 298
191 190 187 190 196 206 216 231 251 265 274 278 277 278 275 273 279 283 283 285 291 293 291 291 290 292 292 294 295 295 299 298 296 295 298 302 306 309 311 311 310 308 307 307
188 189 191 195 201 210 219 234 255 270 282 286 281 278 273 269 272 281 283 287 293 285 285 287 288 290 290 291 291 290 292 290 290 290 292 297 301 305 309 309 308 302 301 302
188 188 192 197 205 211 224 248 267 280 284 286 288 282 280 274 275 278 282 287 296 289 287 285 289 290 287 288 290 288 286 285 284 286 290 294 298 303 307 307 306 305 302 299
188 189 195 203 209 217 237 261 279 284 288 292 298 301 303 299 283 282 288 289 290 290 289 289 288 289 286 287 290 290 287 287 286 287 291 294 298 302 305 306 305 305 304 300
188 192 198 203 213 229 254 273 275 286 290 295 298 298 296 300 291 280 286 287 288 290 290 294 293 291 285 283 283 287 289 291 291 290 291 293 298 301 302 304 305 306 304 300
193 197 202 209 220 237 256 269 278 287 292 297 298 298 294 290 288 299 291 289 288 289 291 289 283 283 284 284 283 283 286 287 290 291 293 295 297 300 301 303 305 305 302 300
197 202 208 214 227 242 257 270 281 286 292 296 296 297 296 293 289 288 287 288 290 290 288 288 283 281 277 279 279 280 284 287 291 292 294 296 298 302 304 305 305 303 298 297
200 207 211 218 232 247 262 274 283 292 289 292 296 299 295 294 293 293 293 293 293 291 290 289 287 282 279 279 280 281 283 286 290 292 293 296 298 301 304 305 302 297 296 295